Regional Weather Roundup
Issued by NWS Charleston, SC

Current Version | Previous Version | Text Only | Print | Product List | Glossary Off
Versions: 1 2 3 4 5 6 7 8 9 10 11 12 13 14 15 16 17 18 19 20 21 22 23 24 25 26 27 28 29 30 31 32 33 34 35 36 37 38 39 40 41 42 43 44 45 46 47 48 49 50

000
ASUS42 KCHS 231227
RWRCHS

REGIONAL WEATHER ROUNDUP
NATIONAL WEATHER SERVICE CHARLESTON SC
800 AM EDT SAT SEP 23 2017

NOTE: "FAIR" INDICATES FEW OR NO CLOUDS BELOW 12,000 FEET WITH NO
SIGNIFICANT WEATHER AND/OR OBSTRUCTIONS TO VISIBILITY.

NOT ALL STATIONS ARE QUALITY CONTROLLED. USE DATA WITH CAUTION...
ESPECIALLY DEWPOINT OBSERVATIONS.

SCZ027-030-031-034>040-042>050-231300-
...SOUTHEAST SOUTH CAROLINA...

CITY           SKY/WX    TMP DP  RH WIND       PRES   REMARKS
N CHARLESTON   PTCLDY    72  71  97 N6        30.01R
6HR MIN TEMP:  69; 6HR MAX TEMP:  72;

WATERFRONT PRK   N/A     74  73  96 N6        29.84R
JOHNS ISLAND   FAIR      73  73 100 N3        30.01R FOG
PINOPOLIS        N/A     73  73 100 NE8       29.94R
MONCKS CORNER    N/A     72  70  94 NE6       30.02R FOG
SUMMERVILLE    FOG       70  70 100 CALM      30.03R VSB 1/4
BEAUFORT MCAS  PTCLDY    73  73 100 NE6       30.00R FOG
6HR MIN TEMP:  72; 6HR MAX TEMP:  74;

BEAUFORT ARPT  FAIR      72  72 100 N5        30.00R FOG
HILTON HEAD IS CLEAR     75  75 100 NE7       30.00R
WALTERBORO     SUNNY     68  68 100 N3        30.03R FOG
ALLENDALE      NOT AVBL

...SOUTHERN MIDLANDS AND PEE DEE...

CITY           SKY/WX    TMP DP  RH WIND       PRES   REMARKS
GEORGETOWN       N/A     68  66  94 CALM      30.03R FOG
KINGSTREE      FAIR      64  63  94 CALM      30.04R
ORANGEBURG     CLEAR     69  67  93 CALM      30.03R FOG
6HR MIN TEMP:  66; 6HR MAX TEMP:  69;

BARNWELL       FAIR      68  66  94 CALM      30.03R
AIKEN          FAIR      63  63 100 CALM      30.08R
MANNING        FAIR      68  66  94 MISG      30.03R FOG
COLUMBIA       PTCLDY    67  64  90 CALM      30.03R
6HR MIN TEMP:  67; 6HR MAX TEMP:  73;

SUMTER         CLEAR     67  65  93 CALM      30.01R
6HR MIN TEMP:  65; 6HR MAX TEMP:  69;

FLORENCE       CLEAR     69  68  96 CALM      30.04R
6HR MIN TEMP:  65; 6HR MAX TEMP:  69;

MYRTLE BEACH   FOG       71  70  96 N6        30.04R VSB 1/2
N MYRTLE BEACH FOG       71  70  96 N5        30.02R VSB 1/2
6HR MIN TEMP:  69; 6HR MAX TEMP:  71;


$$

GAZ063-065-086>088-099>101-113>116-118-119-134>141-150-231300-
...SOUTHEAST GEORGIA...

CITY           SKY/WX    TMP DP  RH WIND       PRES   REMARKS
SAVANNAH ARPT  CLOUDY    71  70  96 N3        30.00R FOG
6HR MIN TEMP:  69; 6HR MAX TEMP:  72;

HUNTER AAF     CLEAR     73  72  96 CALM      29.97R FOG
6HR MIN TEMP:  72; 6HR MAX TEMP:  74;

FORT STEWART   NOT AVBL
STATESBORO     CLEAR     69  69 100 CALM      30.02R FOG
SYLVANIA       SUNNY     68  68 100 CALM      30.03R FOG
CLAXTON        FAIR      68  67  98 CALM      30.02R FOG

...CSRA...CENTRAL AND FAR SOUTHEAST GEORGIA...

CITY           SKY/WX    TMP DP  RH WIND       PRES   REMARKS
THOMSON        FOG       66  65  98 CALM      30.10S VSB<1/4
AUGUSTA-BUSH   PTCLDY    66  65  96 CALM      30.02S
6HR MIN TEMP:  65; 6HR MAX TEMP:  69;

AUGUSTA-DANIEL CLEAR     70  68  93 N6        30.05R
SWAINSBORO     FAIR      68  68 100 CALM      30.03S
VIDALIA        CLEAR     70  70 100 N5        30.02S FOG
EASTMAN          N/A     66  65  97 CALM      30.05S FOG
HAZLEHURST     FAIR      71  69  93 CALM      30.01R
ALMA           PTCLDY    71  69  93 VRB3      30.00R FOG
6HR MIN TEMP:  68; 6HR MAX TEMP:  71;

WAYCROSS       CLEAR     70  67  90 N3        30.00R FOG
JESUP          NOT AVBL
BAXLEY         FAIR      68  68 100 CALM      30.00S FOG
BRUNSWICK      CLEAR     73  72  94 N3        29.98S FOG
SAINT SIMONS   CLEAR     77  74  90 N6        29.97R
6HR MIN TEMP:  76; 6HR MAX TEMP:  79;


$$

SCZ027-028-034-036>038-045-046-048>050-GAZ119-141-231300-
...LAKE AND SUPPLEMENTAL COASTAL OBSERVATIONS...

STATION/POSITION TIME  TEMP    WIND        PRES    WAVE   SWELL
                       AIR SEA DIR/SP/G            HT/PER HT/PER/DIR
                 (UTC) (F)     (DEG/KT/KT) (MB)    (FT/S) (FT/S/D)
WINYAH BAY       NOT AVBL
LAKE MURRAY      1120   69        CALM     1016.6R
ACE BASIN NERRS  1045   71        CALM     1015.0
FORT PULASKI     1142   75 80   20/  7/  8 1015.9R
SAPELO ISLAND    1100   76        CALM     1015.0

$$

ANZ835-935-AMZ111-154-330-350-352-354-370-450-454-472-231300-
...C-MAN AND BUOY OBSERVATIONS...

STATION/POSITION TIME  TEMP    WIND        PRES    WAVE   SWELL
                       AIR SEA DIR/SP/G            HT/PER HT/PER/DIR
                 (UTC) (F)     (DEG/KT/KT) (MB)    (FT/S) (FT/S/D)
BUOY 41004       1200   80 82   40/ 14/ 17 1014.9
BUOY 41008       1150   80 80   40/ 16/ 17 1014.3R   5/14   3/130/14
FOLLY BEACH CMAN 1200   76      30/ 10/ 11 1016.5R
CAPERS NEARSHORE NOT AVBL
FRIPP NEARSHORE  1108   78      20/ 10/ 14 1021.1R


STATION/POSITION TIME  TEMP    WIND        PRES    WAVE   SWELL
                       AIR SEA DIR/SP/G            HT/PER HT/PER/DIR
                 (UTC) (F)     (DEG/KT/KT) (MB)    (FT/S) (FT/S/D)
5E ST. MARYS GA  1200      82                N/A     5/14   3/110/14
FRYING PAN BUOY  1150   80 82   50/ 10/ 12 1015.8R   6/12   7/150/12
BUOY 41025       1150   76 76   50/  4/  4 1016.2R   7/14   7/150/14
CAPE LOOKOUT NC  1200   77     290/  6/  7 1016.3R
BUOY 41002       1150   78 79   60/ 14/ 16 1014.4R  10/12  10/110/12
BUOY 41010       1200           70/ 14/ 17 1013.2
ST AUGUSTINE FL  1200   80 82   50/ 15/ 16 1013.8R


$$



USA.gov is the U.S. government's official web portal to all federal, state and local government web resources and services.